[ ตารางข้อมูล ] [ Min-Max ] [ วันนี้2 ] [ วันนี้4 ] [ เทียบ-A 3วัน ] [ เทียบ-B 4วัน ]   

วันนี้4   [ ◀ ช่วงเก่ากว่า ] [ ช่วงที่ 33 ] [ ช่วงใหม่กว่า ▶ ] [ ล่าสุด ]    [ 3 ชั่วโมง ] [ 6 ชั่วโมง ] [ 12 ชั่วโมง ] [ 24 ชั่วโมง ]   วันนี้4

อุณภูมิในตู้ Knockdown4529  ราย 24 ชั่วโมง  ที่วัดได้ ในช่วงวันเวลา 31/07/2026 (09:29) ถึง 01/08/2026 (09:29) 
ความชื้นในตู้ Knockdown4529  ราย 24 ชั่วโมง  ที่วัดได้ ในช่วงวันเวลา 31/07/2026 (09:29) ถึง 01/08/2026 (09:29) 
การใช้ไฟฟ้าในตู้ Knockdown4529  ราย 24 ชั่วโมง  ที่วัดได้ ในช่วงวันเวลา 31/07/2026 (09:29) ถึง 01/08/2026 (09:29) 

  DS18B20SHTC3PZEM-004TWiFi 
IDDate d/m/Y & Timedata1
สูง
data2
ต่ำ
data3
นอก
temp
pcb
hum
pcb
VoltAmpWattrssiTime
 8527  01/08/2026 09:28:57  27.8  27.3  28.4  28.9  65.9  235.3  0.04  4.5  -83  09:28 
 8526  01/08/2026 09:24:13  27.8  27.2  28.3  28.7  66.0  233.3  0.04  4.4  -78  09:24 
 8525  01/08/2026 09:19:30  27.7  27.2  28.2  28.6  66.1  231.7  0.04  4.4  -76  09:19 
 8524  01/08/2026 09:14:46  27.6  27.2  28.0  28.7  66.0  230.1  0.04  4.4  -79  09:14 
 8523  01/08/2026 09:10:03  27.6  27.2  27.9  28.6  66.2  231.0  0.04  4.3  -79  09:10 
 8522  01/08/2026 09:05:20  27.6  27.2  27.7  28.6  66.0  230.9  0.04  4.4  -80  09:05 
 8521  01/08/2026 09:00:36  27.5  27.2  27.5  28.6  66.1  231.2  0.04  4.4  -80  09:00 
 8520  01/08/2026 08:55:53  27.5  27.2  27.5  28.7  66.2  233.4  0.04  4.4  -80  08:55 
 8519  01/08/2026 08:51:10  27.4  27.1  27.4  28.5  66.1  233.1  0.04  4.4  -76  08:51 
 8518  01/08/2026 08:46:27  27.4  27.1  27.4  28.5  66.2  234.9  0.04  4.4  -80  08:46 
 8517  01/08/2026 08:41:43  27.4  27.1  27.2  28.6  66.3  234.0  0.04  4.4  -78  08:41 
 8516  01/08/2026 08:37:00  27.4  27.1  27.2  28.6  66.3  234.8  0.04  4.4  -78  08:37 
 8515  01/08/2026 08:32:18  27.4  27.1  27.1  28.6  66.4  229.4  0.04  4.4  -78  08:32 
 8514  01/08/2026 08:27:34  27.3  27.1  27.0  28.4  66.3  230.9  0.04  4.4  -77  08:27 
 8513  01/08/2026 08:22:51  27.4  27.1  27.0  28.4  66.6  233.0  0.04  4.4  -79  08:22 
 8512  01/08/2026 08:18:08  27.3  27.1  26.9  28.4  66.5  230.9  0.04  4.4  -76  08:18 
 8511  01/08/2026 08:13:25  27.2  27.1  26.8  28.4  66.7  231.3  0.04  4.4  -78  08:13 
 8510  01/08/2026 08:08:40  27.2  27.1  26.9  28.3  66.8  231.8  0.04  4.4  -75  08:08 
 8509  01/08/2026 08:03:57  27.2  27.0  26.8  28.1  66.6  231.7  0.04  4.4  -79  08:03 
 8508  01/08/2026 07:59:13  27.2  27.0  26.9  28.2  66.7  232.8  0.04  4.4  -80  07:59 
 8507  01/08/2026 07:54:29  27.2  27.0  26.6  28.1  66.8  232.7  0.04  4.4  -76  07:54 
 8506  01/08/2026 07:49:46  27.2  27.0  26.6  28.1  66.8  231.3  0.04  4.4  -78  07:49 
 8505  01/08/2026 07:45:03  27.1  27.0  26.5  28.2  66.9  232.8  0.04  4.4  -77  07:45 
 8504  01/08/2026 07:40:20  27.1  26.9  26.5  28.1  67.0  233.7  0.04  4.4  -78  07:40 

Data every 5 minute.


ใช้เวลาประมวลผล 0.03611 วินาที